FW8839 Weather Reports


time (UTC)temp
F
wind
direction
speed
knots
gust
knots
rain 1hr
in
rain 24hr
in
rain mn
in
humidity
%
barometer
mb
20260505094556 63 0 1.7 7.8 0.00 0.00 0.00 70 1007.4
20260505094057 63 0 0.9 6.1 0.00 0.00 0.00 70 1007.3
20260505093557 63 216 1.7 7.8 0.00 0.00 0.00 70 1007.3
20260505093102 63 200 2.6 10.4 0.00 0.00 0.00 70 1007.3
20260505092557 63 229 4.3 10.4 0.00 0.00 0.00 69 1007.2
20260505092059 63 219 3.5 8.7 0.00 0.00 0.00 68 1007.3
20260505091554 63 209 2.6 9.6 0.00 0.00 0.00 68 1007.3
20260505091057 63 212 4.3 9.6 0.00 0.00 0.00 69 1007.3
20260505090555 63 207 2.6 7.0 0.00 0.00 0.00 70 1007.2
20260505090054 62 209 1.7 7.0 0.00 0.00 0.00 71 1007.1
20260505085558 62 234 2.6 7.0 0.00 0.00 0.00 71 1007.1
20260505085058 62 196 2.6 8.7 0.00 0.00 0.00 71 1007.2
20260505084556 62 264 3.5 8.7 0.00 0.00 0.00 71 1006.9
20260505084057 62 238 2.6 7.8 0.00 0.00 0.00 70 1007.0
20260505083556 62 230 3.5 7.8 0.00 0.00 0.00 70 1007.0
20260505083103 62 173 3.5 7.8 0.00 0.00 0.00 70 1006.7
20260505082557 62 192 3.5 7.8 0.00 0.00 0.00 70 1006.9
20260505082057 62 233 1.7 6.1 0.00 0.00 0.00 71 1006.9
20260505081558 61 227 1.7 7.0 0.00 0.00 0.00 71 1007.1
20260505081057 61 255 1.7 7.0 0.00 0.00 0.00 72 1007.0
20260505080556 61 0 1.7 6.1 0.00 0.00 0.00 72 1007.1
20260505080111 61 0 1.7 5.2 0.00 0.00 0.00 72 1007.2
20260505075557 61 205 0.9 5.2 0.00 0.00 0.00 72 1007.2
20260505075059 61 216 1.7 6.1 0.00 0.00 0.00 71 1007.1
20260505074559 61 219 1.7 7.8 0.00 0.00 0.00 71 1007.1
20260505074057 61 240 1.7 8.7 0.00 0.00 0.00 71 1006.9
20260505073557 61 193 2.6 8.7 0.00 0.00 0.00 71 1006.9
20260505073107 61 209 1.7 9.6 0.00 0.00 0.00 71 1007.0
20260505072557 61 229 2.6 9.6 0.00 0.00 0.00 71 1007.0
20260505072056 61 242 3.5 9.6 0.00 0.00 0.00 71 1007.2
20260505071554 61 224 4.3 9.6 0.00 0.00 0.00 71 1007.1
20260505071056 61 234 2.6 8.7 0.00 0.00 0.00 71 1007.0
20260505070558 61 229 3.5 8.7 0.00 0.00 0.00 71 1007.1
20260505070054 61 235 4.3 8.7 0.00 0.00 0.00 70 1007.2
20260505065555 61 231 3.5 8.7 0.00 0.00 0.00 70 1007.0
20260505065055 61 265 1.7 8.7 0.00 0.00 0.00 70 1007.0
20260505064601 62 227 5.2 8.7 0.00 0.00 0.00 69 1007.0
20260505064056 62 225 2.6 6.1 0.00 0.00 0.00 69 1007.1
20260505063556 62 220 3.5 7.0 0.00 0.00 0.00 68 1006.9
20260505063102 62 227 4.3 7.0 0.00 0.00 0.00 68 1006.9
20260505062557 62 213 2.6 7.0 0.00 0.00 0.00 67 1007.0
20260505062056 62 288 2.6 7.8 0.00 0.00 0.00 67 1006.9
20260505061558 62 212 3.5 7.8 0.00 0.00 0.00 66 1007.0
20260505061057 62 179 2.6 6.1 0.00 0.00 0.00 66 1007.1
20260505060556 62 236 2.6 6.1 0.00 0.00 0.00 66 1007.0
20260505060059 63 0 1.7 5.2 0.00 0.00 0.00 66 1007.1
20260505055600 63 209 1.7 7.0 0.00 0.00 0.00 65 1007.0
20260505055100 63 235 3.5 7.0 0.00 0.00 0.00 65 1007.0
20260505054557 63 216 2.6 7.0 0.00 0.00 0.00 64 1007.2
20260505054057 63 234 3.5 7.0 0.00 0.00 0.00 64 1007.1
20260505053556 63 197 2.6 7.0 0.00 0.00 0.00 64 1007.1
20260505053115 63 200 3.5 7.0 0.00 0.00 0.00 63 1007.1
20260505052556 63 210 3.5 7.0 0.00 0.00 0.00 63 1007.1
20260505052056 63 214 2.6 7.8 0.00 0.00 0.00 62 1007.2
20260505051555 64 233 2.6 7.8 0.00 0.00 0.00 62 1007.2
20260505051053 64 231 3.5 8.7 0.00 0.00 0.00 62 1007.2
20260505050557 63 238 3.5 8.7 0.00 0.00 0.00 62 1007.2
20260505050107 63 237 3.5 7.0 0.00 0.00 0.00 62 1007.1
20260505041557 63 207 0.9 5.2 0.00 0.00 0.00 63 1007.1
20260505041054 63 161 1.7 7.0 0.00 0.00 0.00 63 1007.2
20260505040556 63 213 2.6 8.7 0.00 0.00 0.00 63 1007.1
20260505040058 63 0 3.5 8.7 0.00 0.00 0.00 63 1007.2
20260505035555 63 173 2.6 6.1 0.00 0.00 0.00 63 1007.1
20260505035054 63 205 1.7 10.4 0.00 0.00 0.00 63 1007.3
20260505034613 63 209 2.6 10.4 0.00 0.00 0.00 62 1007.3
20260505034057 63 174 0.9 7.0 0.00 0.00 0.00 62 1007.3
20260505033555 64 0 2.6 7.0 0.00 0.00 0.00 62 1007.2
20260505033057 64 200 2.6 7.0 0.00 0.00 0.00 62 1007.3
20260505032555 64 225 2.6 7.8 0.00 0.00 0.00 61 1007.3
20260505032057 64 251 1.7 8.7 0.00 0.00 0.00 61 1007.2
20260505031556 64 0 2.6 8.7 0.00 0.00 0.00 60 1007.2
20260505031052 64 234 0.9 7.0 0.00 0.00 0.00 59 1007.2
20260505030555 64 183 0.9 7.0 0.00 0.00 0.00 58 1007.0
20260505030058 64 204 2.6 7.0 0.00 0.00 0.00 58 1007.3
20260505025552 64 0 1.7 7.0 0.00 0.00 0.00 56 1007.3
20260505025056 64 215 2.6 7.0 0.00 0.00 0.00 55 1007.3
20260505024559 64 254 1.7 7.0 0.00 0.00 0.00 54 1007.4
20260505024055 64 209 2.6 7.0 0.00 0.00 0.00 54 1007.5
20260505023557 65 0 0.9 7.0 0.00 0.00 0.00 53 1007.5
20260505023101 65 0 1.7 7.0 0.00 0.00 0.00 52 1007.5
20260505022555 65 265 2.6 6.1 0.00 0.00 0.00 52 1007.5
20260505022055 65 167 0.9 7.0 0.00 0.00 0.00 51 1007.4
20260505021559 66 189 0.0 7.0 0.00 0.00 0.00 50 1007.3
20260505021054 66 186 0.9 6.1 0.00 0.00 0.00 49 1007.4
20260505020554 66 141 0.9 7.8 0.00 0.00 0.00 48 1007.4
20260505020100 67 177 0.0 9.6 0.00 0.00 0.00 48 1007.3
20260505015554 67 199 1.7 10.4 0.00 0.00 0.00 47 1007.3
20260505015056 67 0 1.7 10.4 0.00 0.00 0.00 47 1007.2
20260505014600 67 214 2.6 9.6 0.00 0.00 0.00 47 1007.2
20260505014055 67 180 2.6 9.6 0.00 0.00 0.00 47 1007.2
20260505013555 67 218 1.7 7.0 0.00 0.00 0.00 47 1007.2
20260505013105 67 207 2.6 7.0 0.00 0.00 0.00 48 1007.2
20260505012552 67 197 0.9 8.7 0.00 0.00 0.00 48 1007.1
20260505012055 68 208 2.6 8.7 0.00 0.00 0.00 47 1007.1
20260505011612 68 0 1.7 7.8 0.00 0.00 0.00 47 1007.0
20260505011058 68 219 2.6 8.7 0.00 0.00 0.00 47 1007.2
20260505010555 68 197 3.5 8.7 0.00 0.00 0.00 46 1007.1
20260505010057 68 190 2.6 8.7 0.00 0.00 0.00 46 1007.0
20260505005554 68 214 2.6 9.6 0.00 0.00 0.00 46 1007.0
20260505005055 69 225 3.5 9.6 0.00 0.00 0.00 45 1007.0
20260505004607 69 194 1.7 8.7 0.00 0.00 0.00 45 1006.8
20260505004054 69 203 3.5 8.7 0.00 0.00 0.00 44 1006.8
20260505003552 69 209 3.5 7.8 0.00 0.00 0.00 44 1006.8
20260505003057 70 186 2.6 7.8 0.00 0.00 0.00 43 1006.8
20260505002554 70 157 3.5 7.0 0.00 0.00 0.00 43 1006.7
20260505002052 70 232 1.7 9.6 0.00 0.00 0.00 43 1006.7
20260505001606 70 197 2.6 9.6 0.00 0.00 0.00 43 1006.6
20260505001054 70 226 2.6 7.8 0.00 0.00 0.00 42 1006.6
20260505000554 70 229 1.7 8.7 0.00 0.00 0.00 42 1006.6
20260505000109 70 249 0.9 8.7 0.00 0.00 0.00 42 1006.6
20260504235555 71 242 1.7 8.7 0.00 0.00 0.00 41 1006.5
20260504235056 71 232 3.5 8.7 0.00 0.00 0.00 41 1006.6
20260504234557 71 224 0.9 8.7 0.00 0.00 0.00 40 1006.5
20260504234053 71 178 1.7 12.2 0.00 0.00 0.00 40 1006.5
20260504233555 71 219 4.3 12.2 0.00 0.00 0.00 39 1006.5
20260504233111 72 233 6.1 12.2 0.00 0.00 0.00 39 1006.4
20260504232555 72 234 5.2 13.0 0.00 0.00 0.00 39 1006.4
20260504232054 72 212 7.0 13.0 0.00 0.00 0.00 39 1006.4
20260504231559 72 0 6.1 12.2 0.00 0.00 0.00 38 1006.3
20260504231054 72 224 5.2 11.3 0.00 0.00 0.00 38 1006.4
20260504230556 72 217 4.3 11.3 0.00 0.00 0.00 38 1006.4
20260504230059 73 223 6.1 10.4 0.00 0.00 0.00 37 1006.4
20260504225556 73 191 5.2 10.4 0.00 0.00 0.00 37 1006.4
20260504225054 73 216 3.5 10.4 0.00 0.00 0.00 37 1006.3
20260504224555 73 211 5.2 10.4 0.00 0.00 0.00 36 1006.4
20260504224051 73 296 4.3 10.4 0.00 0.00 0.00 36 1006.4
20260504223554 73 263 3.5 12.2 0.00 0.00 0.00 36 1006.5
20260504223054 73 268 3.5 13.0 0.00 0.00 0.00 36 1006.4
20260504222556 73 222 5.2 13.0 0.00 0.00 0.00 36 1006.3
20260504222053 73 296 7.0 12.2 0.00 0.00 0.00 36 1006.3
20260504221555 73 180 6.1 12.2 0.00 0.00 0.00 36 1006.4
20260504221057 73 236 6.1 12.2 0.00 0.00 0.00 36 1006.5
20260504220554 73 232 6.1 12.2 0.00 0.00 0.00 36 1006.4
20260504220058 73 185 4.3 9.6 0.00 0.00 0.00 35 1006.4
20260504215555 73 273 2.6 13.9 0.00 0.00 0.00 35 1006.4
20260504215053 73 225 6.1 13.9 0.00 0.00 0.00 35 1006.4
20260504214600 73 276 6.1 14.8 0.00 0.00 0.00 35 1006.4
20260504214054 73 175 6.1 15.6 0.00 0.00 0.00 35 1006.4
20260504213554 73 244 7.8 15.6 0.00 0.00 0.00 35 1006.5
20260504213054 73 223 7.8 14.8 0.00 0.00 0.00 35 1006.5
20260504212555 73 165 7.0 15.6 0.00 0.00 0.00 34 1006.4
20260504212055 73 258 7.8 15.6 0.00 0.00 0.00 35 1006.5
20260504211554 73 224 6.1 13.0 0.00 0.00 0.00 35 1006.5
20260504211054 73 214 8.7 14.8 0.00 0.00 0.00 34 1006.5
20260504210557 73 246 5.2 17.4 0.00 0.00 0.00 34 1006.5
20260504210058 73 260 7.8 17.4 0.00 0.00 0.00 35 1006.5
20260504205554 73 212 6.1 16.5 0.00 0.00 0.00 34 1006.4
20260504205054 73 215 9.6 16.5 0.00 0.00 0.00 34 1006.5
20260504204557 73 227 7.0 16.5 0.00 0.00 0.00 34 1006.6
20260504204052 73 288 7.0 15.6 0.00 0.00 0.00 34 1006.6
20260504203554 73 246 7.0 15.6 0.00 0.00 0.00 35 1006.5
20260504203059 73 288 8.7 17.4 0.00 0.00 0.00 34 1006.7
20260504202555 73 242 7.8 18.2 0.00 0.00 0.00 34 1006.5
20260504202058 73 269 7.0 18.2 0.00 0.00 0.00 35 1006.5
20260504201557 73 219 8.7 17.4 0.00 0.00 0.00 34 1006.5
20260504201054 73 227 6.1 16.5 0.00 0.00 0.00 34 1006.6
20260504200554 73 283 5.2 15.6 0.00 0.00 0.00 35 1006.6
20260504200101 73 203 5.2 15.6 0.00 0.00 0.00 35 1006.7
20260504195554 73 246 8.7 15.6 0.00 0.00 0.00 34 1006.6
20260504195054 73 196 4.3 13.0 0.00 0.00 0.00 34 1006.7
20260504194602 73 248 7.8 13.0 0.00 0.00 0.00 34 1006.8
20260504194054 73 328 5.2 13.9 0.00 0.00 0.00 34 1006.9
20260504193553 72 198 6.1 17.4 0.00 0.00 0.00 35 1006.9
20260504193056 72 223 7.8 17.4 0.00 0.00 0.00 34 1006.9
20260504192555 72 230 5.2 16.5 0.00 0.00 0.00 34 1007.1
20260504192055 72 225 8.7 16.5 0.00 0.00 0.00 34 1007.2
20260504191613 72 238 6.1 13.9 0.00 0.00 0.00 34 1007.1
20260504191055 72 208 5.2 14.8 0.00 0.00 0.00 34 1007.3
20260504190556 71 202 7.0 15.6 0.00 0.00 0.00 34 1007.3
20260504190054 71 188 8.7 15.6 0.00 0.00 0.00 34 1007.5
20260504185554 71 217 7.8 17.4 0.00 0.00 0.00 33 1007.4
20260504185054 71 214 6.1 17.4 0.00 0.00 0.00 34 1007.5
20260504184554 71 222 7.8 17.4 0.00 0.00 0.00 34 1007.6
20260504184056 71 330 5.2 16.5 0.00 0.00 0.00 34 1007.8
20260504183554 71 250 3.5 15.6 0.00 0.00 0.00 34 1007.7
20260504183054 70 215 8.7 16.5 0.00 0.00 0.00 34 1008.0
20260504182557 71 226 7.8 16.5 0.00 0.00 0.00 34 1008.0
20260504182056 70 224 8.7 16.5 0.00 0.00 0.00 34 1008.1
20260504181558 70 189 7.0 15.6 0.00 0.00 0.00 34 1008.2
20260504181054 70 222 6.1 13.0 0.00 0.00 0.00 34 1008.2
20260504180556 71 188 6.1 15.6 0.00 0.00 0.00 34 1008.3
20260504180055 70 166 3.5 15.6 0.00 0.00 0.00 34 1008.3
20260504175554 70 197 7.8 13.0 0.00 0.00 0.00 34 1008.5
20260504175055 70 242 7.0 13.9 0.00 0.00 0.00 34 1008.4
20260504174555 70 220 7.0 14.8 0.00 0.00 0.00 34 1008.5
20260504174055 70 213 6.1 14.8 0.00 0.00 0.00 33 1008.5
20260504173555 69 213 4.3 13.9 0.00 0.00 0.00 35 1008.5
20260504173054 69 218 7.0 13.9 0.00 0.00 0.00 35 1008.6
20260504172555 68 194 4.3 15.6 0.00 0.00 0.00 36 1008.6
20260504172054 69 240 8.7 15.6 0.00 0.00 0.00 35 1008.8
20260504171555 69 217 5.2 14.8 0.00 0.00 0.00 35 1008.8
20260504171055 68 279 7.0 14.8 0.00 0.00 0.00 35 1008.9
20260504170554 68 203 5.2 14.8 0.00 0.00 0.00 35 1008.9
20260504151056 64 267 4.3 14.8 0.00 0.00 0.00 45 1010.1
20260504150555 64 228 5.2 13.9 0.00 0.00 0.00 46 1010.2
20260504141051 61 203 5.2 12.2 0.00 0.00 0.00 55 1010.3
20260504140551 61 242 5.2 13.0 0.00 0.00 0.00 55 1010.4
20260504130555 57 219 4.3 12.2 0.00 0.00 0.00 66 1010.8
20260504120106 54 190 3.5 7.8 0.00 0.00 0.00 74 1011.1
20260504110555 52 205 2.6 7.8 0.00 0.00 0.00 76 1011.3
20260504100557 50 216 1.7 7.8 0.00 0.00 0.00 74 1011.5